Weather in Petropavlovskoe

Russia / Altai Krai     52°04′23″N   84°06′19″E
temp.,
°C
wind,
m/s
gust,
m/s
humid.,
%
clouds,
%
prec.,
mm/h
press.,
hPa
HPBL,
m
10 may, mon
mon1001:00+9ene612565 0.0 1017520
04:00+6ene5126063 0.0 1017451
07:00+5ene41066100 0.0 1018404
10:00+9ene7954100 0.0 1016628
13:00+13ene8941100 0.0 1014970
16:00+16ene8939100 0.0 10121374
19:00+15ene61042100 0.0 1012880
22:00+11ene7154794 0.0 1012552
11 may, tue
tue1101:00+8ne5126064 0.0 1012390
04:00+5ne387280 0.0 1012268
07:00+5nne137494 0.0 1014142
10:00+10nne225756 0.0 1014717
13:00+14n3442100 0.0 10141388
16:00+16n3434100 0.0 10132047
19:00+16nne2440100 0.0 10141902
22:00+12sw2250100 0.0 101510
12 may, wed
wed1201:00+10wsw335795 0.0 101536
04:00+7wsw226861 0.0 101528
07:00+8wsw2375100 0.0 1016101
10:00+12wnw346039 0.0 1016699
13:00+16n45445 0.0 10161672
16:00+18nnw563983 0.2 10152422
19:00+14nnw255353 0.4 1017366
22:00+11w236477 0.1 101849
13 may, thu
thu1301:00+9wsw347942 0.3 101860
04:00+8sw33845 0.1 101842
07:00+9ssw238075 0.1 101984
10:00+14wnw225624 0.1 1017618
13:00+18nne114051 0.7 10162118
16:00+18ene124068 0.0 10151881
19:00+18e124039 0.0 10151652
22:00+13w1157100 0.0 101610
14 may, fri
fri1401:00+13wsw226094 0.0 101626
04:00+11sw226766 0.0 101628
07:00+11sw2375100 0.2 1017115
10:00+12w3470100 0.2 1018530
13:00+16wnw5656100 0.7 10181739
16:00+17nw6743100 0.5 10182291
19:00+15nw475353 0.5 1020795
22:00+11sw336289 0.0 102239